www.pogodaiklimat.ru

Погода и климат >> Архив погоды >> Кувейт >> Эль-Кувейт


АРХИВ ПОГОДЫ в Эль-Кувейте

Время (UTC), дата Ветер
(напр.,м/с)
 
Видим.   Явления Облачность Т
(С)
Тd
(С)
f
(%)
Тe
(С)
Тes
(С)
Комфортность P
(гПа)
Po
(гПа)
Тmin
(С)
Tmax
(С)
R
(мм)
R24
(мм)
S
(см)
03 16.07 С 7-10
{14}
10 км ясно +33.9 +7.6 20 +32 +33 жарко 997.2 991.9 26
06 16.07 С 8-12
{14}
10 км ясно +39.4 +6.5 14 +37 +39 очень
жарко
997.7 992.5 309
09 16.07 СЗ 11 3000 м пыльный позёмок ясно +45.1 +4.3 9 +42 +42 опасность
перегрева
996.6 991.5 434
12 16.07 С 11-15
{17}
7000 м пыльный позёмок ясно +46.1 +3.0 7 +43 +43 опасность
перегрева
995.8 990.7 364
15 16.07 С 9-14
{17}
6000 м пыльный позёмок ясно +42.8 +7.9 12 +40 +40 очень
жарко
995.7 990.5 74
18 16.07 С 6-9
{17}
10 км ясно +39.3 +7.6 15 +37 +37 очень
жарко
997.9 992.7
21 16.07 С 8-12
{14}
10 км ясно +37.2 +10.5 20 +36 +36 очень
жарко
998.1 992.8 +33.8 +46.5
00 17.07 С 8-11
{14}
10 км ясно +35.4 +8.9 20 +34 +34 очень
жарко
997.8 992.5
03 17.07 С 7-10
{11}
10 км 4/0
[Ci fib]
+34.2 +8.3 20 +33 +33 жарко 998.8 993.5 16
06 17.07 С 9-11
{12}
10 км 6/0
[Ac trans]
+36.4 +8.5 18 +35 +36 очень
жарко
999.8 994.5 221
09 17.07 С 11-17
{17}
10 км 5/0
[Ac trans]
+42.0 +9.0 14 +40 +40 очень
жарко
999.1 993.9 394
12 17.07 СЗ 11-15
{17}
5000 м пыльный позёмок ясно +43.5 +7.4 12 +41 +41 опасность
перегрева
997.9 992.7 352
15 17.07 СЗ 9-13
{15}
10 км ясно +41.7 +8.1 13 +39 +39 очень
жарко
998.1 992.9 81
18 17.07 СЗ 6-8
{15}
10 км ясно +38.7 +7.8 15 +36 +36 очень
жарко
999.7 994.5
21 17.07 С 7-9
{11}
10 км 3/0
[Ac trans]
+36.9 +9.3 19 +35 +35 очень
жарко
999.2 993.9 +34.0 +44.1
00 18.07 СЗ 5-6
{11}
10 км ясно +33.7 +9.5 23 +33 +33 жарко 998.5 993.2
03 18.07 СЗ 4-7
{8}
10 км ясно +32.6 +9.0 23 +31 +32 жарко 998.9 993.6 23
06 18.07 СЗ 8-12
{12}
10 км 4/0
[Ci fib]
+38.0 +9.2 18 +36 +39 очень
жарко
999.2 993.9 291
09 18.07 С 11-16
{15}
3500 м пыльный позёмок 4/0
[Ci fib]
+44.5 +7.4 11 +42 +42 опасность
перегрева
997.6 992.5 414
12 18.07 С 11-16
{19}
1800 м пыльный позёмок 3/0
[Ci fib]
+45.8 +8.7 11 +44 +44 опасность
перегрева
996.1 991.0 280
15 18.07 С 11-14
{17}
4000 м пыльный позёмок 3/0
[Ac trans]
+44.0 +8.4 12 +42 +42 опасность
перегрева
996.4 991.3 43
18 18.07 С 7-10
{17}
10 км 3/0
[Ac trans]
+40.7 +10.4 16 +39 +39 очень
жарко
997.7 992.5
21 18.07 С 8-12
{15}
10 км 3/0
[Ac trans]
+38.2 +10.6 19 +37 +37 очень
жарко
997.3 992.1 +29.2 +46.6
00 19.07 С 10-14
{16}
10 км 3/0
[Ac trans]
+36.5 +10.4 21 +36 +36 очень
жарко
997.0 991.7
03 19.07 С 9-14
{15}
10 км 3/0
[Ac trans]
+35.2 +9.7 21 +34 +34 очень
жарко
998.0 992.7 20
06 19.07 С 10-12
{15}
8000 м мгла 5/0
[Ac trans]
+40.1 +9.6 16 +38 +39 очень
жарко
998.4 993.2 292
09 19.07 С 12-17
{17}
1500 м пыльный позёмок 3/0 300 м
[Ac trans]
+44.3 +8.9 12 +42 +42 опасность
перегрева
998.3 993.2 360
12 19.07 С 12-17
{20}
1500 м пыльный позёмок 5/0
[Ac trans]
+45.4 +8.3 11 +43 +43 опасность
перегрева
996.9 991.8 262
15 19.07 С 10-14
{17}
8000 м мгла 5/0
[Ac trans]
+42.8 +5.4 10 +40 +40 очень
жарко
997.4 992.2 49
18 19.07 С 7-9
{17}
10 км 5/0
[Ac trans]
+39.7 +6.7 13 +37 +37 очень
жарко
999.0 993.8
21 19.07 С 7-9
{11}
10 км ясно +37.1 +9.8 19 +36 +36 очень
жарко
999.2 993.9 +35.0 +45.5
00 20.07 С 8-12
{15}
10 км ясно +34.8 +10.1 22 +34 +34 очень
жарко
999.0 993.7
03 20.07 С 9-12
{15}
10 км 6/0
[Ac trans]
+33.9 +12.1 27 +34 +34 очень
жарко
1000.2 994.9 13
06 20.07 СЗ 9-14
{15}
10 км ясно +37.8 +11.6 21 +37 +39 очень
жарко
1000.6 995.3 287
09 20.07 С 8-12
{15}
10 км 1/0
[Ci fib]
+42.2 +9.7 14 +40 +45 очень
жарко
1000.5 995.3 422
12 20.07 С 8-12
{15}
10 км 3/0
[Ci fib]
+45.3 +7.9 11 +43 +45 опасность
перегрева
998.6 993.5 342
15 20.07 С 7-10
{12}
10 км 3/0
[Ci fib]
+43.6 +10.3 14 +42 +42 опасность
перегрева
998.5 993.3 96
18 20.07 С 5-8
{12}
10 км ясно +40.2 +10.9 17 +39 +39 очень
жарко
999.6 994.4
21 20.07 С 4-7
{9}
10 км ясно +37.1 +10.0 19 +36 +36 очень
жарко
1000.6 995.3 +33.7 +45.6
00 21.07 СЗ 3-3
{9}
10 км ясно +31.9 +8.7 24 +31 +31 жарко 1000.2 994.8
03 21.07 З 2-3
{4}
6000 м мгла 3/0
[Ci fib]
+31.2 +6.3 21 +30 +30 жарко 1000.6 995.2 21
06 21.07 С 7-10
{10}
10 км 3/0
[Ci fib]
+39.0 +7.2 14 +36 +40 очень
жарко
1000.7 995.5 286
09 21.07 С 8-11
{12}
10 км 3/0
[Ci fib]
+44.5 +8.2 12 +43 +47 опасность
перегрева
999.7 994.6 424
12 21.07 С 7-10
{12}
10 км 4/0
[Ci fib]
+46.2 +7.3 10 +44 +47 опасность
перегрева
997.5 992.4 354
15 21.07 С 6-9
{11}
10 км 3/0
[Ci fib]
+45.0 +9.7 13 +44 +44 опасность
перегрева
997.0 991.9 77
18 21.07 СЗ 4-6
{11}
10 км 3/0
[Ci fib]
+41.6 +9.4 15 +40 +40 очень
жарко
997.9 992.7
21 21.07 С 6-8
{11}
10 км 3/0
[Ci fib]
+39.5 +11.0 18 +38 +38 очень
жарко
998.7 993.5 +29.9 +47.0
00 22.07 С 6-9
{11}
10 км 3/0
[Ci fib]
+38.0 +11.2 20 +37 +37 очень
жарко
998.2 993.0
03 22.07 С 6-9
{10}
10 км 3/0
[Ci fib]
+36.7 +10.9 21 +36 +36 очень
жарко
998.9 993.6 18
06 22.07 С 8-12
{13}
10 км ясно +40.9 +10.7 17 +40 +42 очень
жарко
998.6 993.4 281
09 22.07 С 9-13
{14}
10 км ясно +45.7 +9.1 12 +44 +46 опасность
перегрева
997.4 992.3 419
12 22.07 С 9-13
{14}
10 км ясно +47.3 +8.3 10 +45 +46 опасность
перегрева
995.8 990.7 354
15 22.07 С 8-11
{13}
10 км ясно +45.1 +9.3 12 +43 +43 опасность
перегрева
995.6 990.5 79
18 22.07 С 6-12
{13}
10 км ясно +41.9 +10.1 15 +40 +40 очень
жарко
996.5 991.3
21 22.07 СЗ 7-9
{12}
10 км ясно +39.5 +9.5 16 +38 +38 очень
жарко
996.5 991.3 +35.8 +48.2
00 23.07 С 6-9
{12}
10 км ясно +37.7 +9.4 18 +36 +36 очень
жарко
996.6 991.4

 

Местоположение метеостанции Эль-Кувейт (Кувейт): широта 29.22 долгота 47.97 высота над уровнем моря 48 м.

В архиве по умолчанию представлена погода в Эль-Кувейте за последнюю неделю. Архивные данные за месяц целиком и за предыдущие месяцы, начиная с января 2011 года, Вы можете получить, выбрав интересующий диапазон дат из раскрывающегося списка и нажав кнопку "Ввод!".


*Определитесь, кто Вы:
робот инопланетянин человек

Внимание! Время в таблицах - всемирное. Для получения местного времени необходимо прибавить поправку, которая равна 3 ч.

Смотрите также архив погоды в соседних городах и на ближайших метеорологических станциях:

Погода на Экспериментальной ферме (Кувейт) (8 км)
Погода в Кувейт Сити (Кувейт) (14 км)
Погода в Аль-Шуаиба (Кувейт) (19 км)
Погода в Сулайбии (Кувейт) (25 км)
Погода в Эль-Джахра (Кувейт) (31 км)
Погода Остров Файлака (Кувейт) (41 км)
Погода в Минагише (Кувейт) (46 км)
Погода в Порту Juluiah (Кувейт) (49 км)
Погода на Метеостанции Jal Aliyah (Кувейт) (58 км)
Погода на Метеостанции Sabriyah (Кувейт) (60 км)

Пояснения к столбцам:

Ветер - указаны скорость ветра в м/с - средняя за 10 мин, порывы в срок и между сроками (в фигурных скобках) и направление, откуда дует ветер: С - северный, СВ - северо-восточный, В - восточный, ЮВ - юго-восточный, Ю - южный, ЮЗ - юго-западный, З - западный, СЗ - северо-западный.
Видимость - горизонтальная дальность видимости в метрах или километрах. При видимости от 1 до 10 км при отсутствии осадков обычно наблюдается дымка, при ухудшении видимости до 1 км и менее - туман. В сухую погоду видимость может ухудшаться дымом, пылью или мглою.
Явления - указаны атмосферные явления, наблюдавшиеся в срок или в последний час перед сроком; фигурными скобками обозначены явления, наблюдавшиеся между сроками (за 1-3 часа до срока); квадратными скобками обозначены град или гололедные отложения с указанием их диаметра в мм.
Облачность - указаны через наклонную черту общая и нижняя облачность в баллах и высота нижней границы облаков в метрах; квадратными скобками обозначены формы облаков: Ci - перистые, Cs - перисто-слоистые, Cc - перисто-кучевые, Ac - высококучевые, As - высокослоистые, Sc - слоисто-кучевые, Ns - слоисто-дождевые, Cu - кучевые, Cb - кучево-дождевые. Подробнее классификацию облаков см. в Атласе облаков (PDF).
T - Температура воздуха - температура, измеренная на высоте 2 м над землей.
Td - Температура точки росы - температура, при понижении до которой содержащийся в воздухе водяной пар достигнет насыщения.
f - Относительная влажность воздуха - влажноcть воздуха, измеренная на высоте 2 м над землей.
Te - Эффективная температура - температура, которую ощущает одетый по сезону человек в тени. Характеристика душности погоды. При расчете учитывается влияние влажности воздуха и скорости ветра на теплоощущения человека.
Tes - Эффективная температура на солнце - температура, которую ощущает человек, с поправкой на солнечный нагрев. Характеристика знойности погоды. Зависит от высоты солнца над горизонтом, облачности и скорости ветра. Ночью, в пасмурную погоду, а также при ветре 12 м/с и более поправка равна нулю.
P - Атмосферное давление - приведенное к уровню моря атмосферное давление.
Po - Атмосферное давление - измеренное на уровне метеостанции атмосферное давление.
Tmin - Минимальная температура - минимум температуры воздуха на высоте 2 м над землей.
Tmax - Максимальная температура - максимум температуры воздуха на высоте 2 м над землей.
R - Количество осадков - Количество выпавших осадков за период времени, мм. При наведении курсора мыши на число - период времени, за который выпало указанное количество осадков.
R24 - Количество осадков - Количество выпавших осадков за 24 часа, мм.
S - Снежный покров - Высота снежного покрова, см. При наведении курсора мыши на число - состояние снежного покрова и степень покрытия местности в баллах.